Location: Maignaut
(43.8886°N, 0.4051°E)
Time: 20:02:55
(UTC+00:00)

H-2A R/B - Pass Details

Date: 27 February 2020
Orbit: 265 x 32797 km, 28.4° (Epoch: 29 March)

Event Time Altitude Azimuth Distance (km) Brightness Sun altitude
Rises 20:19:19 0° 257° (WSW) 12,315 9.0 -28.6°
Reaches altitude 10° 20:34:52 10° 249° (WSW) 6,648 7.3 -31.2°
Maximum altitude 20:45:26 22° 206° (SSW) 2,426 4.5 -33.0°
Enters shadow 20:45:53 22° 201° (SSW) 2,303 4.4 -33.1°
